DW0538 Weather Reports


Display with metric or nautical units.
time (UTC)temp
F
wind
direction
speed
MPH
gust
MPH
rain 1hr
in
rain 24hr
in
rain mn
in
humidity
%
barometer
mb
20260504020809 53 292 0.0 0.0 0.00 0.00 0.00 44 1012.0
20260504020327 53 292 0.0 2.0 0.00 0.00 0.00 44 1012.0
20260504015813 53 292 0.0 2.0 0.00 0.00 0.00 43 1012.0
20260504014819 53 303 0.0 0.0 0.00 0.00 0.00 43 1012.0
20260504014331 53 302 0.0 0.0 0.00 0.00 0.00 43 1011.8
20260504012315 54 302 0.0 0.0 0.00 0.00 0.00 43 1011.6
20260504011809 54 302 0.0 0.0 0.00 0.00 0.00 43 1011.7
20260504011313 55 302 0.0 0.0 0.00 0.00 0.00 42 1011.6
20260504010825 55 302 0.0 0.0 0.00 0.00 0.00 42 1011.6
20260504010322 56 302 0.0 0.0 0.00 0.00 0.00 39 1011.6
20260504005330 56 302 0.0 0.0 0.00 0.00 0.00 37 1011.4
20260504004815 56 302 0.0 0.0 0.00 0.00 0.00 36 1011.3
20260504004329 57 302 0.0 0.0 0.00 0.00 0.00 36 1011.3
20260504003311 57 302 0.0 0.0 0.00 0.00 0.00 35 1011.0
20260504002819 57 302 0.0 0.0 0.00 0.00 0.00 35 1011.1
20260504001809 58 302 0.0 0.0 0.00 0.00 0.00 35 1011.0
20260504001326 58 302 0.0 0.0 0.00 0.00 0.00 34 1010.9
20260504000819 58 302 0.0 0.0 0.00 0.00 0.00 35 1010.7
20260504000320 58 296 0.0 0.0 0.00 0.00 0.00 34 1010.7
20260503235312 58 298 0.0 0.0 0.00 0.00 0.00 33 1010.5
20260503233811 59 298 0.0 0.0 0.00 0.00 0.00 33 1010.4
20260503233310 59 293 0.0 0.0 0.00 0.00 0.00 32 1010.4
20260503232820 59 302 0.0 1.0 0.00 0.00 0.00 32 1010.3
20260503232315 59 302 0.0 3.0 0.00 0.00 0.00 32 1010.3
20260503231324 60 322 0.0 2.0 0.00 0.00 0.00 31 1010.3
20260503230811 60 334 0.0 4.0 0.00 0.00 0.00 31 1010.2
20260503230331 60 339 0.0 4.0 0.00 0.00 0.00 31 1010.2
20260503225320 60 329 0.0 8.0 0.00 0.00 0.00 30 1010.1
20260503224329 61 324 0.0 6.0 0.00 0.00 0.00 29 1009.9
20260503223815 61 306 1.0 4.0 0.00 0.00 0.00 29 1010.0
20260503223326 62 343 0.0 0.0 0.00 0.00 0.00 29 1010.0
20260503222821 61 360 0.0 8.0 0.00 0.00 0.00 32 1009.9
20260503222315 61 360 0.0 9.0 0.00 0.00 0.00 30 1010.1
20260503221827 61 19 5.0 9.0 0.00 0.00 0.00 29 1009.9
20260503220812 61 16 1.0 8.0 0.00 0.00 0.00 28 1010.0
20260503220329 61 15 0.0 7.0 0.00 0.00 0.00 29 1010.0
20260503215310 61 302 0.0 9.0 0.00 0.00 0.00 29 1009.9
20260503214827 61 344 1.0 6.0 0.00 0.00 0.00 29 1010.0
20260503214323 60 355 0.0 12.0 0.00 0.00 0.00 28 1010.1
20260503213815 60 291 1.0 12.0 0.00 0.00 0.00 30 1010.0
20260503213330 60 339 2.0 14.0 0.00 0.00 0.00 29 1010.1
20260503212832 60 343 1.0 15.0 0.00 0.00 0.00 28 1010.0
20260503210813 60 328 2.0 12.0 0.00 0.00 0.00 28 1009.9
20260503210329 60 313 6.0 12.0 0.00 0.00 0.00 28 1009.9
20260503205308 59 307 3.0 14.0 0.00 0.00 0.00 30 1009.9
20260503204813 59 336 0.0 0.0 0.00 0.00 0.00 30 1009.9
20260503204330 59 261 1.0 18.0 0.00 0.00 0.00 30 1010.0
20260503203814 60 63 6.0 10.0 0.00 0.00 0.00 29 1010.0
20260503203309 60 304 3.0 11.0 0.00 0.00 0.00 31 1010.0
20260503202822 59 319 0.0 12.0 0.00 0.00 0.00 30 1010.1
20260503202309 59 298 3.0 16.0 0.00 0.00 0.00 30 1010.1
20260503201319 59 355 1.0 8.0 0.00 0.00 0.00 33 1010.2
20260503200831 58 332 0.0 11.0 0.00 0.00 0.00 32 1010.3
20260503200315 57 254 2.0 13.0 0.00 0.00 0.00 33 1010.3
20260503195818 57 281 2.0 14.0 0.00 0.00 0.00 32 1010.5
20260503195332 58 318 3.0 14.0 0.00 0.00 0.00 31 1010.6
20260503194834 58 344 0.0 0.0 0.00 0.00 0.00 31 1010.6
20260503194324 58 315 1.0 19.0 0.00 0.00 0.00 33 1010.5
20260503193826 58 315 3.0 19.0 0.00 0.00 0.00 32 1010.6
20260503190814 57 5 3.0 14.0 0.00 0.00 0.00 32 1010.8
20260503185820 57 342 5.0 14.0 0.00 0.00 0.00 34 1011.0
20260503184827 57 271 6.0 15.0 0.00 0.00 0.00 34 1011.1
20260503184317 56 321 3.0 13.0 0.00 0.00 0.00 36 1011.0
20260503183319 56 355 0.0 13.0 0.00 0.00 0.00 38 1011.0
20260503182829 56 360 3.0 14.0 0.00 0.00 0.00 35 1010.9
20260503182319 56 32 1.0 14.0 0.00 0.00 0.00 37 1010.9
20260503181811 55 325 0.0 11.0 0.00 0.00 0.00 37 1010.9
20260503180817 54 290 2.0 18.0 0.00 0.00 0.00 37 1011.2
20260503180315 54 355 3.0 13.0 0.00 0.00 0.00 39 1011.1
20260503175824 53 273 1.0 16.0 0.00 0.00 0.00 38 1011.1
20260503175313 53 5 4.0 16.0 0.00 0.00 0.00 39 1011.1
20260503174317 54 15 2.0 13.0 0.00 0.00 0.00 40 1011.1
20260503173829 53 339 2.0 10.0 0.00 0.00 0.00 40 1011.3
20260503171824 52 325 6.0 15.0 0.00 0.00 0.00 41 1011.6
20260503170825 52 335 6.0 13.0 0.00 0.00 0.00 41 1011.5
20260503150829 49 36 1.0 8.0 0.00 0.00 0.00 45 1012.0
20260503131323 47 355 5.0 12.0 0.00 0.00 0.00 56 1011.9
20260503130813 47 360 0.0 12.0 0.00 0.00 0.00 56 1011.8
20260503130324 47 24 3.0 12.0 0.00 0.00 0.00 56 1011.8
20260503110345 44 10 0.0 0.0 0.00 0.00 0.00 62 1011.7
20260503090317 45 355 0.0 5.0 0.00 0.00 0.00 56 1010.4
20260503081322 46 32 0.0 0.0 0.00 0.00 0.00 56 1010.4
20260503080813 46 339 0.0 0.0 0.00 0.00 0.00 56 1010.4
20260503080312 46 355 0.0 3.0 0.00 0.00 0.00 56 1010.4
20260503072809 46 28 0.0 0.0 0.00 0.00 0.00 57 1010.3
20260503072328 46 28 0.0 0.0 0.00 0.00 0.00 57 1010.3
20260503071818 46 28 0.0 0.0 0.00 0.00 0.00 56 1010.2
20260503071317 46 28 0.0 0.0 0.00 0.00 0.00 57 1010.2
20260503060330 48 20 0.0 0.0 0.00 0.00 0.00 51 1010.5
20260503054831 49 20 0.0 0.0 0.00 0.00 0.00 49 1010.5
20260503054323 49 20 0.0 1.0 0.00 0.00 0.00 49 1010.6
20260503053815 49 20 0.0 1.0 0.00 0.00 0.00 48 1010.6
20260503053316 49 11 0.0 0.0 0.00 0.00 0.00 49 1010.6
20260503051831 49 13 0.0 0.0 0.00 0.00 0.00 50 1010.8
20260503050813 50 13 0.0 0.0 0.00 0.00 0.00 50 1010.9
20260503050327 50 13 0.0 0.0 0.00 0.00 0.00 49 1010.9
20260503045323 50 13 0.0 0.0 0.00 0.00 0.00 47 1010.8
20260503044809 50 42 0.0 3.0 0.00 0.00 0.00 48 1010.8
20260503044327 50 355 0.0 3.0 0.00 0.00 0.00 47 1011.0
20260503043820 50 38 0.0 0.0 0.00 0.00 0.00 47 1011.1
20260503043309 50 5 0.0 0.0 0.00 0.00 0.00 47 1011.1
20260503042824 50 5 0.0 0.0 0.00 0.00 0.00 47 1011.2
20260503042318 50 5 0.0 0.0 0.00 0.00 0.00 47 1011.1
20260503041820 50 5 0.0 0.0 0.00 0.00 0.00 48 1011.2
20260503041310 51 5 0.0 0.0 0.00 0.00 0.00 46 1011.2
20260503040829 51 5 0.0 0.0 0.00 0.00 0.00 46 1011.3
20260503040319 51 5 0.0 0.0 0.00 0.00 0.00 46 1011.1
20260503035810 51 5 0.0 0.0 0.00 0.00 0.00 45 1011.0
20260503035309 51 340 0.0 1.0 0.00 0.00 0.00 46 1011.1
20260503034829 51 5 0.0 3.0 0.00 0.00 0.00 46 1011.0
20260503034313 51 5 0.0 3.0 0.00 0.00 0.00 45 1011.0
20260503033808 51 11 0.0 3.0 0.00 0.00 0.00 45 1011.0
20260503033334 51 57 0.0 0.0 0.00 0.00 0.00 46 1010.9
20260503032814 51 346 0.0 0.0 0.00 0.00 0.00 46 1011.0
20260503032328 51 346 0.0 0.0 0.00 0.00 0.00 46 1010.9
20260503030821 51 346 0.0 0.0 0.00 0.00 0.00 45 1011.0
20260503025826 51 346 0.0 0.0 0.00 0.00 0.00 45 1010.9
20260503025318 52 346 0.0 0.0 0.00 0.00 0.00 44 1010.9
20260503024814 52 346 0.0 1.0 0.00 0.00 0.00 44 1010.9
20260503024311 52 346 0.0 1.0 0.00 0.00 0.00 44 1010.9
20260503023828 52 9 0.0 2.0 0.00 0.00 0.00 43 1010.9
20260503023322 52 5 0.0 2.0 0.00 0.00 0.00 43 1011.0
20260503022814 52 332 0.0 3.0 0.00 0.00 0.00 43 1011.0
20260503022311 52 360 0.0 3.0 0.00 0.00 0.00 43 1010.8
20260503021824 53 360 0.0 2.0 0.00 0.00 0.00 43 1010.9